Torna al catalogo

WENCHANG-1 02

AttivoScienzaSSO
NORAD 51828·PAYLOAD·🇨🇳 China
Questo nome del satellite non è ancora stato confermato da fonti ufficiali.

Lanciato Feb 27, 2022 da Wenchang Space Launch Site

Loading…

Prossimi Passaggi (prossime 24 ore)

TLE

AggiornatoSource: Space-Track

Epoca: Sep 14, 2026, 14:39 UTC

1 51828U 22019E   26257.61106823  .00025124  00000-0  27261-3 0  9992
2 51828  97.3787 358.4644 0005954 129.2978 230.8809 15.63485987253941

Traccia WENCHANG-1 02 in tempo reale con AllMySat

Download on the App Store